BEL8RD EBBR-LIMC

Flight info

Callsign BEL8RD
Flight time N/A
Altitude 37000
Route ROUSY DCT GTQ DCT DEVDI DCT RIPUS DCT GERSA DCT SOSON DCT DEGAD Z424 RIXUV
Aircraft A320/M-SDE3FGHIRWY/LB1

Departure

Time 2026-05-01 08:17
Airport Brussels Airport (EBBR)

Arrival

Time N/A
Airport Milan Malpensa International Airport (LIMC)
Time Latitude Longitude Altitude Speed Heading
2026-05-01 07:52 50.90328 4.48314 120 ft 0 kts 155°
2026-05-01 08:07 50.90349 4.48299 116 ft 4 kts 146°
2026-05-01 08:07 50.90364 4.48259 117 ft 0 kts 65°
2026-05-01 08:10 50.90365 4.48261 121 ft 2 kts 65°
2026-05-01 08:10 50.90418 4.48367 120 ft 10 kts 47°
2026-05-01 08:11 50.90504 4.48587 119 ft 13 kts 65°
2026-05-01 08:11 50.90595 4.48904 120 ft 18 kts 65°
2026-05-01 08:12 50.90584 4.49180 123 ft 14 kts 155°
2026-05-01 08:12 50.90489 4.49248 120 ft 17 kts 155°
2026-05-01 08:12 50.90419 4.49425 123 ft 11 kts 104°
2026-05-01 08:13 50.90365 4.49527 122 ft 13 kts 144°
2026-05-01 08:13 50.90275 4.49519 123 ft 14 kts 194°
2026-05-01 08:13 50.90082 4.49440 131 ft 15 kts 194°
2026-05-01 08:14 50.89977 4.49397 133 ft 16 kts 194°
2026-05-01 08:14 50.89875 4.49355 138 ft 15 kts 194°
2026-05-01 08:14 50.89776 4.49315 145 ft 13 kts 194°
2026-05-01 08:14 50.89694 4.49282 149 ft 11 kts 194°
2026-05-01 08:15 50.89616 4.49241 154 ft 11 kts 216°
2026-05-01 08:15 50.89475 4.49152 161 ft 12 kts 194°
2026-05-01 08:15 50.89398 4.49120 164 ft 12 kts 194°
2026-05-01 08:16 50.89302 4.49081 168 ft 15 kts 194°
2026-05-01 08:16 50.89208 4.49044 175 ft 13 kts 194°
2026-05-01 08:16 50.89146 4.49083 176 ft 12 kts 88°
2026-05-01 08:16 50.89157 4.49135 176 ft 0 kts 69°
2026-05-01 08:17 50.89218 4.49402 176 ft 65 kts 70°
2026-05-01 08:17 50.89456 4.50432 176 ft 130 kts 70°
2026-05-01 08:17 50.89815 4.51987 377 ft 163 kts 70°
2026-05-01 08:17 50.90283 4.53634 1190 ft 161 kts 65°
2026-05-01 08:18 50.90782 4.55185 1974 ft 160 kts 69°
2026-05-01 08:18 50.91810 4.58350 3290 ft 160 kts 67°
2026-05-01 08:19 50.92932 4.61825 4083 ft 200 kts 66°
2026-05-01 08:19 50.93593 4.63912 4459 ft 221 kts 70°
2026-05-01 08:19 50.94138 4.66327 4851 ft 245 kts 76°
2026-05-01 08:19 50.94661 4.69014 5488 ft 261 kts 77°
2026-05-01 08:20 50.95186 4.71796 6424 ft 265 kts 77°
2026-05-01 08:20 50.95466 4.74658 7372 ft 263 kts 95°
2026-05-01 08:20 50.95128 4.77492 8270 ft 263 kts 113°
2026-05-01 08:20 50.94213 4.80001 9171 ft 265 kts 131°
2026-05-01 08:21 50.92855 4.81993 10081 ft 268 kts 141°
2026-05-01 08:21 50.91405 4.83893 10894 ft 273 kts 141°
2026-05-01 08:21 50.89882 4.85857 11306 ft 294 kts 144°
2026-05-01 08:21 50.88029 4.87504 11567 ft 318 kts 158°
2026-05-01 08:22 50.85823 4.88342 12012 ft 334 kts 173°
2026-05-01 08:22 50.83487 4.88682 12732 ft 340 kts 173°
2026-05-01 08:22 50.81146 4.89040 13495 ft 344 kts 173°
2026-05-01 08:22 50.78749 4.89416 14232 ft 348 kts 173°
2026-05-01 08:23 50.76328 4.89801 14901 ft 352 kts 173°
2026-05-01 08:23 50.73877 4.90194 15199 ft 354 kts 173°
2026-05-01 08:23 50.71428 4.90580 15332 ft 356 kts 173°
2026-05-01 08:23 50.68970 4.91142 15996 ft 358 kts 165°
2026-05-01 08:24 50.66611 4.92417 16683 ft 360 kts 155°
2026-05-01 08:24 50.64443 4.94424 17345 ft 363 kts 143°
2026-05-01 08:24 50.62546 4.97083 18006 ft 367 kts 136°
2026-05-01 08:24 50.60729 4.99927 18652 ft 371 kts 136°
2026-05-01 08:25 50.58881 5.02797 19218 ft 375 kts 136°
2026-05-01 08:25 50.57014 5.05685 19786 ft 378 kts 136°
2026-05-01 08:25 50.55129 5.08600 20355 ft 382 kts 136°
2026-05-01 08:25 50.53228 5.11536 20921 ft 385 kts 136°
2026-05-01 08:26 50.51300 5.14511 21426 ft 390 kts 135°
2026-05-01 08:26 50.49347 5.17519 21951 ft 394 kts 135°
2026-05-01 08:26 50.47377 5.20554 22451 ft 398 kts 135°
2026-05-01 08:26 50.45390 5.23610 22987 ft 401 kts 135°
2026-05-01 08:27 50.43387 5.26686 23508 ft 405 kts 135°
2026-05-01 08:27 50.41360 5.29788 23949 ft 409 kts 135°
2026-05-01 08:27 50.39310 5.32916 24336 ft 412 kts 135°
2026-05-01 08:27 50.37253 5.36061 24777 ft 414 kts 135°
2026-05-01 08:28 50.35217 5.39178 25182 ft 416 kts 135°
2026-05-01 08:28 50.33138 5.42356 25553 ft 419 kts 135°
2026-05-01 08:28 50.31058 5.45525 25980 ft 420 kts 135°
2026-05-01 08:28 50.28945 5.48734 26354 ft 423 kts 135°
2026-05-01 08:29 50.26827 5.51945 26746 ft 424 kts 135°
2026-05-01 08:29 50.24699 5.55165 27036 ft 429 kts 135°
2026-05-01 08:29 50.22548 5.58421 27389 ft 431 kts 135°
2026-05-01 08:29 50.20388 5.61692 27688 ft 434 kts 135°